Time,TemperatureF,DewpointF,PressureIn,WindDirection,WindDirectionDegrees,WindSpeedMPH,WindSpeedGustMPH,Humidity,HourlyPrecipIn,Conditions,Clouds,dailyrainin,SolarRadiationWatts/m^2,SoftwareType,DateUTC
2013-05-05 00:02:00,22.0,20.0,-100.00,NW,326,8.0,14.0,93,0.00,,,0.40,0.000000,,2013-05-05 08:02:00,
2013-05-05 00:11:00,22.0,20.0,-100.00,NW,326,8.0,14.0,93,0.00,,,0.40,0.000000,,2013-05-05 08:11:00,
2013-05-05 00:21:00,22.0,20.0,-100.00,NW,326,8.0,14.0,93,0.00,,,0.40,0.000000,,2013-05-05 08:21:00,
2013-05-05 00:31:00,22.0,20.0,-100.00,NW,326,8.0,14.0,93,0.00,,,0.40,0.000000,,2013-05-05 08:31:00,
2013-05-05 00:42:00,22.0,20.0,-100.00,NW,326,8.0,14.0,93,0.00,,,0.40,0.000000,,2013-05-05 08:42:00,
2013-05-05 12:01:00,30.0,27.0,-100.00,West,269,0.0,1.0,88,-99.99,,,0.19,219.300003,,2013-05-05 20:01:00,
2013-05-05 12:11:00,30.0,27.0,-100.00,West,269,0.0,1.0,88,-99.99,,,0.19,219.300003,,2013-05-05 20:11:00,
2013-05-05 12:21:00,30.0,27.0,-100.00,West,269,0.0,1.0,88,-99.99,,,0.19,219.300003,,2013-05-05 20:21:00,
2013-05-05 12:31:00,30.0,27.0,-100.00,West,269,0.0,1.0,88,-99.99,,,0.19,219.300003,,2013-05-05 20:31:00,
2013-05-05 12:41:00,30.0,27.0,-100.00,West,269,0.0,1.0,88,-99.99,,,0.19,219.300003,,2013-05-05 20:41:00,
2013-05-05 13:01:00,35.0,32.0,-100.00,WNW,289,2.0,0.0,88,0.00,,,0.09,370.899994,,2013-05-05 21:01:00,
2013-05-05 13:11:00,35.0,32.0,-100.00,WNW,289,2.0,0.0,88,0.00,,,0.09,370.899994,,2013-05-05 21:11:00,
2013-05-05 13:21:00,35.0,32.0,-100.00,WNW,289,2.0,0.0,88,0.00,,,0.09,370.899994,,2013-05-05 21:21:00,
2013-05-05 13:32:00,35.0,32.0,-100.00,WNW,289,2.0,0.0,88,0.00,,,0.09,370.899994,,2013-05-05 21:32:00,
2013-05-05 13:42:00,35.0,32.0,-100.00,WNW,289,2.0,0.0,88,0.00,,,0.09,370.899994,,2013-05-05 21:42:00,
2013-05-05 14:02:00,36.0,33.0,-100.00,West,277,3.0,4.0,87,0.00,,,0.05,775.500000,,2013-05-05 22:02:00,
2013-05-05 14:12:00,36.0,33.0,-100.00,West,277,3.0,4.0,87,0.00,,,0.05,775.500000,,2013-05-05 22:12:00,
2013-05-05 14:22:00,36.0,33.0,-100.00,West,277,3.0,4.0,87,0.00,,,0.05,775.500000,,2013-05-05 22:22:00,
2013-05-05 14:33:00,36.0,33.0,-100.00,West,277,3.0,4.0,87,0.00,,,0.05,775.500000,,2013-05-05 22:33:00,
2013-05-05 14:41:00,36.0,33.0,-100.00,West,277,3.0,4.0,87,0.00,,,0.05,775.500000,,2013-05-05 22:41:00,
2013-05-05 15:02:00,35.0,32.0,-100.00,West,276,4.0,5.0,87,0.00,,,0.02,877.500000,,2013-05-05 23:02:00,
2013-05-05 15:11:00,35.0,32.0,-100.00,West,276,4.0,5.0,87,0.00,,,0.02,877.500000,,2013-05-05 23:11:00,
2013-05-05 15:21:00,35.0,32.0,-100.00,West,276,4.0,5.0,87,0.00,,,0.02,877.500000,,2013-05-05 23:21:00,
2013-05-05 15:31:00,35.0,32.0,-100.00,West,276,4.0,5.0,87,0.00,,,0.02,877.500000,,2013-05-05 23:31:00,
2013-05-05 15:41:00,35.0,32.0,-100.00,West,276,4.0,5.0,87,0.00,,,0.02,877.500000,,2013-05-05 23:41:00,
2013-05-05 16:01:00,37.0,34.0,-100.00,WNW,294,3.0,5.0,87,0.05,,,0.05,749.200012,,2013-05-06 00:01:00,
2013-05-05 16:11:00,37.0,34.0,-100.00,WNW,294,3.0,5.0,87,0.05,,,0.05,749.200012,,2013-05-06 00:11:00,
2013-05-05 16:21:00,37.0,34.0,-100.00,WNW,294,3.0,5.0,87,0.05,,,0.05,749.200012,,2013-05-06 00:21:00,
2013-05-05 16:31:00,37.0,34.0,-100.00,WNW,294,3.0,5.0,87,0.05,,,0.05,749.200012,,2013-05-06 00:31:00,
2013-05-05 16:41:00,37.0,34.0,-100.00,WNW,294,3.0,5.0,87,0.05,,,0.05,749.200012,,2013-05-06 00:41:00,
2013-05-05 17:01:00,36.0,32.0,-100.00,WNW,288,4.0,4.0,85,0.05,,,0.10,736.799988,,2013-05-06 01:01:00,
2013-05-05 17:11:00,36.0,32.0,-100.00,WNW,288,4.0,4.0,85,0.05,,,0.10,736.799988,,2013-05-06 01:11:00,
2013-05-05 17:21:00,36.0,32.0,-100.00,WNW,288,4.0,4.0,85,0.05,,,0.10,736.799988,,2013-05-06 01:21:00,
2013-05-05 17:31:00,36.0,32.0,-100.00,WNW,288,4.0,4.0,85,0.05,,,0.10,736.799988,,2013-05-06 01:31:00,
2013-05-05 17:41:00,36.0,32.0,-100.00,WNW,288,4.0,4.0,85,0.05,,,0.10,736.799988,,2013-05-06 01:41:00,
2013-05-05 18:01:00,37.0,34.0,-100.00,WNW,290,3.0,6.0,87,0.03,,,0.13,781.299988,,2013-05-06 02:01:00,
2013-05-05 18:11:00,37.0,34.0,-100.00,WNW,290,3.0,6.0,87,0.03,,,0.13,781.299988,,2013-05-06 02:11:00,
2013-05-05 18:21:00,37.0,34.0,-100.00,WNW,290,3.0,6.0,87,0.03,,,0.13,781.299988,,2013-05-06 02:21:00,
2013-05-05 18:32:00,37.0,34.0,-100.00,WNW,290,3.0,6.0,87,0.03,,,0.13,781.299988,,2013-05-06 02:32:00,
2013-05-05 18:42:00,37.0,34.0,-100.00,WNW,290,3.0,6.0,87,0.03,,,0.13,781.299988,,2013-05-06 02:42:00,
2013-05-05 19:01:00,31.0,28.0,-100.00,WNW,291,7.0,7.0,90,0.03,,,0.16,579.799988,,2013-05-06 03:01:00,
2013-05-05 19:11:00,31.0,28.0,-100.00,WNW,291,7.0,7.0,90,0.03,,,0.16,579.799988,,2013-05-06 03:11:00,
2013-05-05 19:22:00,31.0,28.0,-100.00,WNW,291,7.0,7.0,90,0.03,,,0.16,579.799988,,2013-05-06 03:22:00,
2013-05-05 19:33:00,31.0,28.0,-100.00,WNW,291,7.0,7.0,90,0.03,,,0.16,579.799988,,2013-05-06 03:33:00,
2013-05-05 19:42:00,31.0,28.0,-100.00,WNW,291,7.0,7.0,90,0.03,,,0.16,579.799988,,2013-05-06 03:42:00,
2013-05-05 20:02:00,25.0,23.0,-100.00,WNW,288,9.0,9.0,92,0.00,,,0.16,279.399994,,2013-05-06 04:02:00,
2013-05-05 20:12:00,25.0,23.0,-100.00,WNW,288,9.0,9.0,92,0.00,,,0.16,279.399994,,2013-05-06 04:12:00,
2013-05-05 20:23:00,25.0,23.0,-100.00,WNW,288,9.0,9.0,92,0.00,,,0.16,279.399994,,2013-05-06 04:23:00,
2013-05-05 20:32:00,25.0,23.0,-100.00,WNW,288,9.0,9.0,92,0.00,,,0.16,279.399994,,2013-05-06 04:32:00,
2013-05-05 20:42:00,25.0,23.0,-100.00,WNW,288,9.0,9.0,92,0.00,,,0.16,279.399994,,2013-05-06 04:42:00,
2013-05-05 21:02:00,24.0,22.0,-100.00,WSW,242,4.0,13.0,90,0.00,,,0.16,203.899994,,2013-05-06 05:02:00,
2013-05-05 21:12:00,24.0,22.0,-100.00,WSW,242,4.0,13.0,90,0.00,,,0.16,203.899994,,2013-05-06 05:12:00,
2013-05-05 21:22:00,24.0,22.0,-100.00,WSW,242,4.0,13.0,90,0.00,,,0.16,203.899994,,2013-05-06 05:22:00,
2013-05-05 21:32:00,24.0,22.0,-100.00,WSW,242,4.0,13.0,90,0.00,,,0.16,203.899994,,2013-05-06 05:32:00,
2013-05-05 21:42:00,24.0,22.0,-100.00,WSW,242,4.0,13.0,90,0.00,,,0.16,203.899994,,2013-05-06 05:42:00,
2013-05-05 22:02:00,22.0,20.0,-100.00,WSW,245,4.0,7.0,91,0.00,,,0.16,62.900002,,2013-05-06 06:02:00,
2013-05-05 22:12:00,22.0,20.0,-100.00,WSW,245,4.0,7.0,91,0.00,,,0.16,62.900002,,2013-05-06 06:12:00,
2013-05-05 22:21:00,22.0,20.0,-100.00,WSW,245,4.0,7.0,91,0.00,,,0.16,62.900002,,2013-05-06 06:21:00,
2013-05-05 22:31:00,22.0,20.0,-100.00,WSW,245,4.0,7.0,91,0.00,,,0.16,62.900002,,2013-05-06 06:31:00,
2013-05-05 22:41:00,22.0,20.0,-100.00,WSW,245,4.0,7.0,91,0.00,,,0.16,62.900002,,2013-05-06 06:41:00,
2013-05-05 23:01:00,22.0,20.0,-100.00,West,274,4.0,5.0,92,0.00,,,0.16,7.200000,,2013-05-06 07:01:00,
2013-05-05 23:11:00,22.0,20.0,-100.00,West,274,4.0,5.0,92,0.00,,,0.16,7.200000,,2013-05-06 07:11:00,
2013-05-05 23:22:00,22.0,20.0,-100.00,West,274,4.0,5.0,92,0.00,,,0.16,7.200000,,2013-05-06 07:22:00,
2013-05-05 23:31:00,22.0,20.0,-100.00,West,274,4.0,5.0,92,0.00,,,0.16,7.200000,,2013-05-06 07:31:00,
2013-05-05 23:42:00,22.0,20.0,-100.00,West,274,4.0,5.0,92,0.00,,,0.16,7.200000,,2013-05-06 07:42:00,